Tracking 19831 objects as of 23-Aug-2019
HD Live streaming from Space Station
objects crossing your sky now

COSMOS 2251 DEB

Track COSMOS 2251 DEB now!
10-day predictions


NORAD ID: 37531
Int'l Code: 1993-036BNL
Perigee: 740.3 km
Apogee: 820.2 km
Inclination: 74.0 °
Period: 100.3 minutes
Semi major axis: 7151 km
RCS: 0.0115 m2 (small)
Launch date: June 16, 1993
Source: Commonwealth of Independent States (former USSR) (CIS)
Launch site: PLESETSK MISSILE AND SPACE COMPLEX (PKMTR)

Note: This is SATELLITE DEBRIS
aabbcc
Your satellite tracking list
Your tracking list is empty




NASA's NSSDC Master Catalog

Two Line Element Set (TLE):
1 37531U 93036BNL 19234.59571289 +.00000507 +00000-0 +18170-3 0  9997
2 37531 074.0229 226.6702 0055897 146.6456 213.8239 14.35584593368222
Source of the keplerian elements: AFSPC